Location: Newark
(41.8083°N, 72.2500°W)
Time: 20:47:50
(UTC+00:00)

Transit 2A Rocket - Visible Passes

Search period start: 06 December 2021 00:00
Search period end: 16 December 2021 00:00
Orbit: 584 x 918 km, 66.7° (Epoch: 06 December)

Date Brightness Start Highest point End Pass type
(mag) Time Alt. Az. Time Alt. Az. Time Alt. Az.
06 Dec 8.7 10:00:26 10° ESE 10:01:44 11° E 10:03:04 10° E visible
06 Dec 8.2 22:05:16 10° WNW 22:09:27 20° WSW 22:13:27 10° SSW visible
07 Dec 6.5 10:55:21 10° S 11:00:41 46° ESE 11:06:24 10° NE visible
08 Dec 7.4 10:13:34 10° SSE 10:18:16 28° ESE 10:23:14 10° NE visible
09 Dec 8.1 09:32:36 10° SE 09:35:58 16° ESE 09:39:28 10° ENE visible
09 Dec 5.2 11:12:05 10° SSW 11:17:46 79° WNW 11:23:52 10° NNE visible
09 Dec 8.4 21:40:51 10° WNW 21:43:42 14° W 21:46:28 10° SW visible
10 Dec 5.7 10:29:32 10° SSW 10:35:07 65° ESE 10:41:07 10° NE visible
11 Dec 6.6 09:47:25 10° S 09:52:37 39° ESE 09:58:09 10° NE visible
11 Dec 5.8 11:29:54 10° WSW 11:35:16 38° NW 11:40:56 10° NNE visible
12 Dec 7.4 09:05:53 10° SSE 09:10:14 23° ESE 09:14:49 10° NE visible
12 Dec 5.3 10:46:43 10° SW 10:52:23 59° NW 10:58:25 10° NNE visible
13 Dec 8.0 08:25:25 10° SE 08:27:59 13° E 08:30:38 10° ENE visible
13 Dec 5.2 10:03:55 10° SSW 10:09:38 87° ESE 10:15:45 10° NNE visible
14 Dec 5.9 09:23:37 23° S 09:27:02 54° ESE 09:32:56 10° NE visible
14 Dec 6.1 11:04:56 10° WSW 11:10:00 30° NW 11:15:19 10° NNE visible
15 Dec 6.7 08:44:17 32° ESE 08:44:34 32° ESE 08:49:51 10° NE visible
15 Dec 5.6 10:24:17 27° WSW 10:27:02 45° NW 10:32:53 10° NNE visible
